Regional Weather Roundup
Issued by NWS Sterling, VA

Home | Current Version | Previous Version | Graphics & Text | Print | Product List | Glossary On
Versions: 1 2 3 4 5 6 7 8 9 10 11 12 13 14 15 16 17 18 19 20 21 22 23 24 25 26 27 28 29 30 31 32 33 34 35 36 37 38 39 40 41 42 43 44 45 46 47 48 49 50
000
ASUS41 KLWX 231910
RWRLWX

REGIONAL WEATHER ROUNDUP
NATIONAL WEATHER SERVICE BALTIMORE MD/WASHINGTON DC
300 PM EDT SAT MAY 23 2015

Note: "FAIR" indicates few or no clouds below 12,000 feet
with no significant weather and/or obstructions to visibility.
 TC=TEMPERATURE CELSIUS

 * =Non NWS site. Station does not report precipitation (e.g. rain,
    snow, etc.), thunder, or fog.

DCZ001-MDZ009-015-VAZ040>042-051-053>054-232000-
WASHINGTON METRO

CITY           SKY/WX    TMP DP  RH WIND       PRES   REMARKS
WASHINGTON NAT MOSUNNY   74  33  22 VRB7      30.42F
DULLES         MOSUNNY   70  34  26 NW7       30.41F
ANDREWS AFB    SUNNY     69  30  23 VRB1      30.41F
FT BELVOIR     SUNNY     72  31  22 VRB5      30.41F
QUANTICO       SUNNY     69  38  32 S8        30.43F
COLLEGE PARK*  SUNNY     70  32  24 CALM      30.40F
LEESBURG*      SUNNY     70  37  30 SW6       30.42F
MANASSAS*      SUNNY     70  34  26 CALM      30.42F
GAITHERSBURG*  SUNNY     66  36  32 W8        30.45F

$$

MDZ006>007-011-014-232000-
BALTIMORE METRO

CITY           SKY/WX    TMP DP  RH WIND       PRES   REMARKS
BWI AIRPORT    MOSUNNY   70  28  21 CALM      30.40F
MD SCIENCE CTR   N/A     70  28  21 MISG      30.41F
MARTIN STATE   SUNNY     66  39  37 SE8       30.43F
ANNAPOLIS      SUNNY     63  36  36 SE10      30.42F
FORT MEADE*    SUNNY     68  32  26 W3        30.43F

$$

MDZ012-015-019>023-232000-
MARYLAND EASTERN SHORE

CITY           SKY/WX    TMP DP  RH WIND       PRES   REMARKS
OCEAN CITY     SUNNY     60  42  51 E8        30.44F
SALISBURY      SUNNY     69  31  24 VRB7      30.42S
BAY BRIDGE AP*   N/A    N/A N/A N/A CALM      30.42F
CAMBRIDGE*     SUNNY     70  30  23 N6        30.43S
EASTON*        MOSUNNY   68  32  26 VRB6      30.47S

$$

MDZ017>025-232000-
SOUTHERN MARYLAND

CITY           SKY/WX    TMP DP  RH WIND       PRES   REMARKS
PATUXENT RIVER MOSUNNY   66  30  26 E6        30.43F
ST INIGOES     SUNNY     67  38  34 S12       30.43F
LEONARDTOWN*   SUNNY     68  34  28 CALM      30.44F

$$

MDZ003>005-232000-
NORTH CENTRAL MARYLAND

CITY           SKY/WX    TMP DP  RH WIND       PRES   REMARKS
FREDERICK*     SUNNY     70  36  28 VRB5      30.43F
HAGERSTOWN APT SUNNY     68  29  23 W5        30.40F
WESTMINSTER*   SUNNY     66  23  19 CALM      30.41F

$$

MDZ501>502-232000-
WESTERN MARYLAND

CITY           SKY/WX    TMP DP  RH WIND       PRES   REMARKS
OAKLAND*       SUNNY     63  34  34 W8        30.42F
CUMBERLAND*    SUNNY     72  34  25 S3        30.40F

$$

VAZ025>031-232000-
SHENANDOAH VALLEY

CITY           SKY/WX    TMP DP  RH WIND       PRES   REMARKS
WINCHESTER*    SUNNY     72  28  20 SE7       30.40F
FRONT ROYAL*   FAIR      70  41  35 E3        30.39F
LURAY*         FAIR      73  43  33 SW5       30.39F
NEW MARKET*    FAIR      70  41  34 CALM      30.38F
STAUNTON*      SUNNY     71  43  36 S6        30.41F
WAYNESBORO*    FAIR      69  46  43 SE9       30.40F

$$

WVZ021-048>050-054>055-232000-
EASTERN WEST VIRGINIA PANHANDLE

CITY           SKY/WX    TMP DP  RH WIND       PRES   REMARKS
MARTINSBURG    SUNNY     70  37  29 E6        30.40F
PETERSBURG*    SUNNY     73  36  26 NE3       30.37F

$$

VAZ036>039-050-232000-
CENTRAL FOOTHILLS

CITY           SKY/WX    TMP DP  RH WIND       PRES   REMARKS
CHARLOTTESVILL SUNNY     72  42  34 SE7G20    30.41F
CULPEPER*      SUNNY     71  37  29 CALM      30.42F
ORANGE*        MOSUNNY   72  41  33 CALM      30.43F
GORDONSVILLE*  FAIR      71  41  34 SW6       30.41F
WARRENTON*     FAIR      72  42  32 S3        30.41F

$$

VAZ055>057-232000-
NORTH AND CENTRAL PIEDMONT

CITY           SKY/WX    TMP DP  RH WIND       PRES   REMARKS
FREDERICKSBRG* SUNNY     73  38  27 S5        30.42F
STAFFORD*      SUNNY     71  32  23 W6        30.46F

$$

NCZ024-NYZ072-PAZ021-071-VAZ022-071-232000-
OTHER REGIONAL OBSERVATIONS

CITY           SKY/WX    TMP DP  RH WIND       PRES   REMARKS
NEW YORK CITY  SUNNY     66  24  20 CALM      30.39F
PHILADELPHIA   SUNNY     67  25  20 SW13      30.41F
PITTSBURGH     MOSUNNY   69  32  25 VRB3      30.39F
ROANOKE        MOSUNNY   74  49  41 SE8       30.42F
RICHMOND       MOSUNNY   75  39  27 NW7       30.42F
RALEIGH        MOSUNNY   77  47  34 SE6       30.41F

$$

ANZ530>537-232000-
MARINE OBSERVATIONS

STATION/POSITION TIME  TEMP    WIND        PRES
                       AIR SEA DIR/SP/G
                 (UTC) (F)     (DEG/KT/KT) (MB)
THOMAS PT LIGHT  1900   63 65  130/  6/  7 1030.8F
BALT KEY BRIDGE  1800   60     120/  8/  9 1030.3F
LEWISETTA        1800   63 69              1030.8F
SOLOMONS ISLAND  1800      68                N/A
PINEY POINT      1800          220/  7/  8   N/A

$$




USA.gov is the U.S. government's official web portal to all federal, state and local government web resources and services.